Find Starlink 1880

NORAD ID: 47165 Int'l Des: 2020-088 Owner: SPXS Country: US Constellation: starlink decayed
LEOCIRCULAR

Historical Track — 5. Feb. 2025

3D-Globus wird geladen...

About Starlink 1880

Starlink 1880 (NORAD 47165) is a starlink constellation satellite (v1.0) launched Nov 25, 2020 by SPXS of US. It operates in LEO, CIRCULAR orbit with a mass of 260.00 kg.

Über Starlink 1880

Beschreibung wird geladen...

Höhenverlauf

Loading altitude history...

Zweizeiliger Elementsatz

1 47165U 20088AV 25036.66279406 .15383080 12511-4 61861-3 0 9994
2 47165 53.0243 247.3985 0007640 295.8466 175.4931 16.43313928232756
Epoch: 5. Feb. 2025 • Age: 11747 hours

Aktueller Status

Position data unavailable
Startdatum 25. Nov. 2020
Alter 5.5 years
Verglühungsdatum 5. Feb. 2025
Typ internet

Technische Details

Klassifizierung Payload
Masse 260.00 kg
Trockenmasse 248.00 kg
Gesamtmasse 260.00 kg
Länge 0.20 m
Durchmesser 2.80 m
Spannweite 9.00 m
Form Box + pan
Hersteller SPXS
Bus-Typ Starlink
Phasenstatus Unknown Transfer Status
Besitzer/Staat SPXS/US

Most Searched